GW6363 Weather Reports


Display with metric or nautical units.
time (UTC)temp
F
wind
direction
speed
MPH
gust
MPH
rain 1hr
in
rain 24hr
in
rain mn
in
humidity
%
barometer
mb
20260508204354 75 77 1.0 3.0 0.00 0.00 0.00 30 1013.8
20260508203849 75 72 4.0 5.0 0.00 0.00 0.00 30 1013.9
20260508203346 75 104 0.0 4.0 0.00 0.00 0.00 31 1013.9
20260508202842 75 66 4.0 6.0 0.00 0.00 0.00 30 1014.0
20260508202340 74 350 0.0 3.0 0.00 0.00 0.00 33 1013.9
20260508201837 72 55 0.0 2.0 0.00 0.00 0.00 33 1013.8
20260508201334 72 49 2.0 5.0 0.00 0.00 0.00 32 1013.9
20260508200830 74 52 2.0 6.0 0.00 0.00 0.00 32 1014.0
20260508200327 73 12 2.0 5.0 0.00 0.00 0.00 35 1014.1
20260508195822 73 65 0.0 2.0 0.00 0.00 0.00 35 1014.2
20260508195319 73 63 2.0 4.0 0.00 0.00 0.00 35 1014.4
20260508194816 72 80 4.0 4.0 0.00 0.00 0.00 35 1014.4
20260508194313 72 62 2.0 7.0 0.00 0.00 0.00 34 1014.7
20260508193810 73 37 2.0 4.0 0.00 0.00 0.00 38 1014.7
20260508193307 73 60 3.0 4.0 0.00 0.00 0.00 34 1014.8
20260508192803 73 83 2.0 2.0 0.00 0.00 0.00 36 1015.0
20260508192300 72 211 1.0 6.0 0.00 0.00 0.00 34 1015.4
20260508191757 73 94 3.0 9.0 0.00 0.00 0.00 32 1015.6
20260508191254 73 310 2.0 3.0 0.00 0.00 0.00 34 1015.5
20260508190751 72 266 0.0 3.0 0.00 0.00 0.00 36 1015.8
20260508190247 73 283 2.0 3.0 0.00 0.00 0.00 34 1015.8
20260508185744 72 278 2.0 6.0 0.00 0.00 0.00 34 1015.8
20260508185241 72 108 4.0 5.0 0.00 0.00 0.00 36 1015.9
20260508184738 71 101 2.0 2.0 0.00 0.00 0.00 36 1015.8
20260508184236 71 123 4.0 9.0 0.00 0.00 0.00 34 1016.0
20260508183732 71 264 2.0 7.0 0.00 0.00 0.00 34 1016.0
20260508183228 71 85 3.0 7.0 0.00 0.00 0.00 34 1016.0
20260508182724 70 205 0.0 3.0 0.00 0.00 0.00 33 1016.1
20260508182221 71 74 3.0 4.0 0.00 0.00 0.00 33 1016.0
20260508181717 71 65 4.0 4.0 0.00 0.00 0.00 32 1016.1
20260508181215 71 274 2.0 4.0 0.00 0.00 0.00 39 1016.3
20260508180711 70 75 3.0 8.0 0.00 0.00 0.00 35 1016.2
20260508180208 70 322 0.0 4.0 0.00 0.00 0.00 33 1016.3
20260508175705 70 69 2.0 3.0 0.00 0.00 0.00 31 1016.4
20260508175201 70 92 2.0 2.0 0.00 0.00 0.00 35 1016.3
20260508174659 69 29 2.0 4.0 0.00 0.00 0.00 34 1016.3
20260508174155 69 93 2.0 3.0 0.00 0.00 0.00 36 1016.3
20260508173652 69 70 4.0 5.0 0.00 0.00 0.00 33 1016.5
20260508173148 69 76 2.0 5.0 0.00 0.00 0.00 35 1016.6
20260508172646 69 108 4.0 4.0 0.00 0.00 0.00 34 1016.7
20260508172143 69 95 2.0 4.0 0.00 0.00 0.00 33 1016.7
20260508171639 69 301 2.0 2.0 0.00 0.00 0.00 35 1016.8
20260508171135 69 295 3.0 3.0 0.00 0.00 0.00 36 1017.0
20260508170632 68 273 1.0 3.0 0.00 0.00 0.00 41 1017.0
20260508170130 69 87 2.0 2.0 0.00 0.00 0.00 36 1017.3
20260508165627 69 71 3.0 4.0 0.00 0.00 0.00 36 1017.2
20260508165124 69 286 0.0 2.0 0.00 0.00 0.00 44 1017.5
20260508164620 69 103 6.0 6.0 0.00 0.00 0.00 36 1017.3
20260508164117 68 295 1.0 3.0 0.00 0.00 0.00 42 1017.4
20260508163615 68 161 0.0 6.0 0.00 0.00 0.00 33 1017.6
20260508163111 68 75 0.0 2.0 0.00 0.00 0.00 35 1017.9
20260508162608 69 76 3.0 4.0 0.00 0.00 0.00 42 1017.8
20260508162106 69 57 2.0 3.0 0.00 0.00 0.00 37 1018.0
20260508161602 68 202 0.0 3.0 0.00 0.00 0.00 36 1018.0
20260508161100 66 302 0.0 4.0 0.00 0.00 0.00 42 1018.1
20260508160558 66 42 1.0 4.0 0.00 0.00 0.00 38 1018.0
20260508160054 66 46 4.0 5.0 0.00 0.00 0.00 40 1018.1
20260508155552 66 77 1.0 3.0 0.00 0.00 0.00 40 1018.0
20260508155048 66 31 1.0 3.0 0.00 0.00 0.00 37 1018.2
20260508154546 65 311 1.0 2.0 0.00 0.00 0.00 42 1018.1
20260508154042 65 304 0.0 3.0 0.00 0.00 0.00 43 1018.1
20260508153539 65 97 2.0 3.0 0.00 0.00 0.00 40 1018.2
20260508153036 64 118 3.0 8.0 0.00 0.00 0.00 39 1018.3
20260508152533 64 0 0.0 2.0 0.00 0.00 0.00 44 1018.6
20260508152028 64 95 3.0 4.0 0.00 0.00 0.00 42 1018.6
20260508151525 63 60 2.0 4.0 0.00 0.00 0.00 41 1018.5
20260508151022 64 93 0.0 6.0 0.00 0.00 0.00 43 1018.6
20260508150519 64 94 1.0 4.0 0.00 0.00 0.00 43 1018.5
20260508150015 63 113 1.0 4.0 0.00 0.00 0.00 46 1018.6
20260508145512 64 311 0.0 2.0 0.00 0.00 0.00 44 1018.6
20260508145008 63 291 1.0 2.0 0.00 0.00 0.00 46 1018.5
20260508144506 63 291 0.0 2.0 0.00 0.00 0.00 50 1018.6
20260508144003 62 52 1.0 2.0 0.00 0.00 0.00 53 1018.8
20260508143500 61 61 0.0 2.0 0.00 0.00 0.00 57 1018.6
20260508142956 59 129 0.0 2.0 0.00 0.00 0.00 60 1018.5
20260508142454 59 89 1.0 4.0 0.00 0.00 0.00 60 1018.8
20260508141950 58 31 0.0 2.0 0.00 0.00 0.00 65 1018.6
20260508141447 58 96 4.0 4.0 0.00 0.00 0.00 66 1018.9
20260508140945 57 120 0.0 2.0 0.00 0.00 0.00 68 1019.0
20260508140441 57 85 2.0 2.0 0.00 0.00 0.00 73 1018.8
20260508135937 56 64 1.0 2.0 0.00 0.00 0.00 72 1018.8
20260508135434 56 58 1.0 2.0 0.00 0.00 0.00 76 1018.9
20260508134930 55 45 2.0 2.0 0.00 0.00 0.00 75 1019.1
20260508134427 55 69 0.0 2.0 0.00 0.00 0.00 79 1018.9
20260508133923 54 34 1.0 4.0 0.00 0.00 0.00 78 1018.8
20260508133421 54 72 2.0 3.0 0.00 0.00 0.00 79 1018.9
20260508132918 54 45 1.0 1.0 0.00 0.00 0.00 79 1018.8
20260508132416 53 86 2.0 3.0 0.00 0.00 0.00 80 1018.9
20260508131913 53 84 0.0 2.0 0.00 0.00 0.00 82 1018.8
20260508131408 52 57 2.0 2.0 0.00 0.00 0.00 82 1018.9
20260508130905 52 73 2.0 3.0 0.00 0.00 0.00 83 1018.8
20260508130402 51 52 0.0 3.0 0.00 0.00 0.00 85 1018.6
20260508125857 50 66 1.0 2.0 0.00 0.00 0.00 86 1018.6
20260508125354 50 75 2.0 3.0 0.00 0.00 0.00 88 1018.5
20260508124852 49 43 2.0 3.0 0.00 0.00 0.00 91 1018.3
20260508124349 48 74 2.0 2.0 0.00 0.00 0.00 93 1018.5
20260508123847 48 82 0.0 2.0 0.00 0.00 0.00 95 1018.6
20260508123345 47 68 2.0 2.0 0.00 0.00 0.00 96 1018.6
20260508122841 47 80 1.0 2.0 0.00 0.00 0.00 97 1018.9
20260508122338 46 86 2.0 2.0 0.00 0.00 0.00 97 1018.5
20260508121835 46 77 2.0 2.0 0.00 0.00 0.00 98 1018.8
20260508121334 45 77 2.0 2.0 0.00 0.00 0.00 97 1018.6
20260508120831 45 65 2.0 2.0 0.00 0.00 0.00 97 1018.6
20260508120329 45 74 2.0 2.0 0.00 0.00 0.00 97 1018.1
20260508115826 45 66 1.0 2.0 0.00 0.00 0.00 97 1018.2
20260508115323 44 73 2.0 2.0 0.00 0.00 0.00 97 1018.2
20260508114820 44 68 2.0 2.0 0.00 0.00 0.00 97 1018.1
20260508114317 44 65 2.0 3.0 0.00 0.00 0.00 97 1018.1
20260508113813 43 81 2.0 2.0 0.00 0.00 0.00 97 1017.9
20260508113312 43 74 2.0 2.0 0.00 0.00 0.00 97 1017.8
20260508112808 43 68 2.0 2.0 0.00 0.00 0.00 97 1017.8
20260508112307 43 79 2.0 2.0 0.00 0.00 0.00 97 1017.8
20260508111801 43 74 2.0 2.0 0.00 0.00 0.00 97 1017.7
20260508111259 42 89 2.0 2.0 0.00 0.00 0.00 97 1017.7
20260508110756 42 70 2.0 2.0 0.00 0.00 0.00 97 1017.5
20260508110253 42 64 2.0 2.0 0.00 0.00 0.00 96 1017.6
20260508105753 42 68 2.0 2.0 0.00 0.00 0.00 96 1017.3
20260508105250 42 59 2.0 2.0 0.00 0.00 0.00 96 1017.3
20260508104747 42 68 2.0 2.0 0.00 0.00 0.00 96 1017.3
20260508104244 42 83 2.0 2.0 0.00 0.00 0.00 96 1017.1
20260508103741 42 75 2.0 2.0 0.00 0.00 0.00 96 1017.2
20260508103238 42 77 1.0 2.0 0.00 0.00 0.00 96 1017.3
20260508102735 42 71 2.0 2.0 0.00 0.00 0.00 96 1017.0
20260508102233 42 69 2.0 2.0 0.00 0.00 0.00 96 1017.0
20260508101730 42 79 1.0 2.0 0.00 0.00 0.00 96 1016.9
20260508101228 42 84 2.0 2.0 0.00 0.00 0.00 96 1017.0
20260508100725 42 72 2.0 2.0 0.00 0.00 0.00 96 1016.8
20260508100223 42 81 2.0 2.0 0.00 0.00 0.00 96 1016.9
20260508095719 43 75 2.0 2.0 0.00 0.00 0.00 96 1017.0
20260508095217 43 71 2.0 2.0 0.00 0.00 0.00 96 1016.8
20260508094713 42 69 2.0 2.0 0.00 0.00 0.00 95 1016.8
20260508094210 43 70 2.0 2.0 0.00 0.00 0.00 95 1016.6
20260508093707 43 71 1.0 2.0 0.00 0.00 0.00 95 1016.8
20260508093205 43 63 2.0 2.0 0.00 0.00 0.00 96 1016.7
20260508092702 43 69 2.0 2.0 0.00 0.00 0.00 96 1016.8
20260508092200 43 61 2.0 2.0 0.00 0.00 0.00 95 1016.8
20260508091657 43 59 2.0 2.0 0.00 0.00 0.00 95 1016.4
20260508091154 43 75 2.0 2.0 0.00 0.00 0.00 95 1016.5
20260508090652 44 72 2.0 2.0 0.00 0.00 0.00 95 1016.8
20260508090150 44 68 2.0 2.0 0.00 0.00 0.00 95 1016.5
20260508085645 44 77 2.0 2.0 0.00 0.00 0.00 95 1016.6
20260508085143 44 78 2.0 2.0 0.00 0.00 0.00 95 1016.7
20260508084639 44 84 2.0 2.0 0.00 0.00 0.00 95 1016.7
20260508084136 44 77 2.0 2.0 0.00 0.00 0.00 95 1016.7
20260508083634 45 85 2.0 2.0 0.00 0.00 0.00 95 1016.8
20260508083131 45 80 2.0 2.0 0.00 0.00 0.00 94 1016.7
20260508082626 45 78 2.0 2.0 0.00 0.00 0.00 94 1016.4
20260508082124 45 84 2.0 2.0 0.00 0.00 0.00 94 1016.7
20260508081621 45 55 2.0 2.0 0.00 0.00 0.00 94 1016.7
20260508081117 45 73 2.0 2.0 0.00 0.00 0.00 93 1016.6
20260508080615 45 74 2.0 2.0 0.00 0.00 0.00 94 1016.6
20260508080113 45 76 2.0 2.0 0.00 0.00 0.00 93 1016.6
20260508075609 45 72 2.0 2.0 0.00 0.00 0.00 92 1016.6
20260508075106 45 73 2.0 2.0 0.00 0.00 0.00 92 1016.6
20260508074604 46 73 2.0 2.0 0.00 0.00 0.00 92 1016.6
20260508074101 46 74 2.0 2.0 0.00 0.00 0.00 92 1016.6
20260508073558 46 71 2.0 2.0 0.00 0.00 0.00 92 1016.7
20260508073056 46 65 1.0 2.0 0.00 0.00 0.00 92 1016.7
20260508072551 46 66 2.0 2.0 0.00 0.00 0.00 92 1016.7
20260508072048 46 79 2.0 2.0 0.00 0.00 0.00 92 1016.7
20260508071546 46 86 2.0 2.0 0.00 0.00 0.00 92 1016.8
20260508071044 46 89 2.0 2.0 0.00 0.00 0.00 91 1017.0
20260508070541 46 77 2.0 2.0 0.00 0.00 0.00 92 1016.6
20260508070039 47 77 2.0 2.0 0.00 0.00 0.00 92 1016.7
20260508065537 47 67 1.0 2.0 0.00 0.00 0.00 92 1016.8
20260508065035 47 74 1.0 2.0 0.00 0.00 0.00 92 1016.9
20260508064532 47 78 1.0 2.0 0.00 0.00 0.00 91 1016.7
20260508064030 48 46 1.0 2.0 0.00 0.00 0.00 91 1016.9
20260508063527 47 69 1.0 2.0 0.00 0.00 0.00 88 1016.8
20260508063025 47 66 1.0 2.0 0.00 0.00 0.00 86 1016.7
20260508062522 48 69 1.0 2.0 0.00 0.00 0.00 87 1017.0
20260508062018 48 87 2.0 2.0 0.00 0.00 0.00 88 1016.6
20260508061517 48 81 2.0 2.0 0.00 0.00 0.00 88 1016.9
20260508061013 48 62 2.0 2.0 0.00 0.00 0.00 88 1016.8
20260508060510 48 77 0.0 2.0 0.00 0.00 0.00 90 1016.9
20260508060008 48 64 1.0 2.0 0.00 0.00 0.00 91 1016.8
20260508055503 49 58 1.0 1.0 0.00 0.00 0.00 92 1017.0
20260508055000 49 58 1.0 2.0 0.00 0.00 0.00 92 1016.8
20260508054456 49 46 1.0 2.0 0.00 0.00 0.00 91 1016.8
20260508053953 48 73 1.0 1.0 0.00 0.00 0.00 91 1016.8
20260508053450 48 67 2.0 2.0 0.00 0.00 0.00 91 1016.8
20260508052948 48 82 1.0 2.0 0.00 0.00 0.00 91 1016.9
20260508052445 49 78 1.0 2.0 0.00 0.00 0.00 92 1016.8
20260508051942 49 81 1.0 2.0 0.00 0.00 0.00 93 1016.8
20260508051437 49 73 1.0 2.0 0.00 0.00 0.00 93 1017.1
20260508050933 49 60 0.0 2.0 0.00 0.00 0.00 93 1017.1
20260508050431 49 62 1.0 2.0 0.00 0.00 0.00 93 1017.2
20260508045926 49 71 1.0 2.0 0.00 0.00 0.00 92 1016.8
20260508045425 49 73 1.0 2.0 0.00 0.00 0.00 92 1016.7
20260508044922 49 64 2.0 2.0 0.00 0.00 0.00 92 1016.7
20260508044419 49 82 1.0 2.0 0.00 0.00 0.00 92 1016.7
20260508043914 49 92 1.0 2.0 0.00 0.00 0.00 92 1016.6
20260508043412 49 75 2.0 2.0 0.00 0.00 0.00 91 1016.7
20260508042908 50 87 1.0 2.0 0.00 0.00 0.00 91 1016.4
20260508042406 50 89 2.0 2.0 0.00 0.00 0.00 90 1016.5
20260508041903 50 74 1.0 2.0 0.00 0.00 0.00 90 1016.5
20260508041359 50 82 1.0 2.0 0.00 0.00 0.00 89 1016.5
20260508040855 50 74 2.0 2.0 0.00 0.00 0.00 89 1016.6
20260508040353 51 73 1.0 2.0 0.00 0.00 0.00 88 1016.5
20260508035850 51 89 1.0 2.0 0.00 0.09 0.09 87 1016.6
20260508035347 51 84 2.0 2.0 0.00 0.09 0.09 87 1016.3
20260508034844 51 72 2.0 2.0 0.00 0.09 0.09 86 1016.3
20260508034341 51 60 2.0 2.0 0.00 0.09 0.09 85 1016.4
20260508033838 52 58 2.0 2.0 0.00 0.09 0.09 85 1016.2
20260508033336 52 84 1.0 2.0 0.00 0.09 0.09 85 1016.2
20260508032833 52 80 2.0 2.0 0.00 0.09 0.09 84 1016.3
20260508032331 52 77 1.0 2.0 0.00 0.09 0.09 83 1016.2
20260508031827 53 80 1.0 2.0 0.00 0.09 0.09 80 1016.3
20260508031324 53 75 2.0 2.0 0.00 0.09 0.09 79 1016.5
20260508030820 53 73 2.0 2.0 0.00 0.09 0.09 82 1016.3
20260508030318 53 74 2.0 2.0 0.00 0.09 0.09 83 1016.3
20260508025814 53 69 1.0 2.0 0.00 0.09 0.09 84 1016.1
20260508025312 54 73 2.0 2.0 0.00 0.09 0.09 83 1016.0
20260508024808 54 75 2.0 2.0 0.00 0.09 0.09 81 1015.9
20260508024305 54 70 2.0 2.0 0.00 0.09 0.09 79 1016.1
20260508023802 55 89 1.0 2.0 0.00 0.09 0.09 80 1016.2
20260508023258 55 59 1.0 2.0 0.00 0.09 0.09 81 1016.1
20260508022754 56 60 1.0 2.0 0.00 0.09 0.09 79 1016.1
20260508022251 56 66 1.0 2.0 0.00 0.09 0.09 79 1016.1
20260508021748 56 70 1.0 2.0 0.00 0.09 0.09 78 1015.9
20260508021243 57 45 0.0 1.0 0.00 0.09 0.09 77 1016.0
20260508020740 57 59 1.0 2.0 0.00 0.09 0.09 78 1016.1
20260508020238 58 68 0.0 1.0 0.00 0.09 0.09 76 1015.9
20260508015735 58 84 0.0 1.0 0.00 0.09 0.09 79 1015.7
20260508015232 58 89 0.0 1.0 0.00 0.09 0.09 79 1015.4
20260508014729 58 81 1.0 1.0 0.00 0.09 0.09 79 1015.3
20260508014226 59 95 1.0 2.0 0.00 0.09 0.09 79 1015.3
20260508013721 59 99 0.0 2.0 0.00 0.09 0.09 79 1015.0
20260508013218 59 34 0.0 0.0 0.00 0.09 0.09 81 1015.3
20260508012716 59 83 1.0 2.0 0.00 0.09 0.09 81 1015.3
20260508012212 59 45 0.0 2.0 0.00 0.09 0.09 80 1015.1
20260508011711 60 59 1.0 2.0 0.00 0.09 0.09 82 1014.9
20260508011208 60 60 1.0 2.0 0.00 0.09 0.09 80 1014.9
20260508010704 60 289 0.0 2.0 0.00 0.09 0.09 80 1014.8
20260508010203 60 54 1.0 2.0 0.00 0.09 0.09 81 1014.6
20260508005659 60 47 0.0 1.0 0.00 0.09 0.09 81 1014.7
20260508005156 60 63 2.0 2.0 0.00 0.09 0.09 80 1014.7
20260508004652 60 32 0.0 1.0 0.00 0.09 0.09 80 1014.5
20260508004148 60 49 0.0 1.0 0.00 0.09 0.09 82 1014.5
20260508003645 60 32 1.0 1.0 0.00 0.09 0.09 80 1014.3
20260508003142 60 22 0.0 1.0 0.00 0.09 0.09 78 1014.2
20260508002638 60 32 0.0 0.0 0.00 0.09 0.09 78 1014.2
20260508002137 60 37 0.0 0.0 0.00 0.09 0.09 78 1014.2
20260508001637 60 50 0.0 0.0 0.00 0.09 0.09 78 1014.0
20260508001134 61 0 0.0 1.0 0.00 0.09 0.09 76 1014.0
20260508000629 61 32 0.0 0.0 0.00 0.09 0.09 74 1013.9
20260508000127 61 326 0.0 0.0 0.00 0.09 0.09 73 1013.9
20260507235624 62 6 0.0 0.0 0.00 0.09 0.09 72 1013.9
20260507235121 62 34 0.0 2.0 0.00 0.09 0.09 72 1013.9
20260507234618 62 6 0.0 0.0 0.00 0.09 0.09 71 1013.8
20260507234114 63 335 0.0 0.0 0.00 0.09 0.09 70 1013.8
20260507233611 63 44 0.0 1.0 0.00 0.09 0.09 68 1014.1
20260507233110 63 86 2.0 4.0 0.00 0.09 0.09 67 1013.7
20260507232605 64 80 0.0 1.0 0.00 0.09 0.09 67 1013.8
20260507232103 64 85 2.0 2.0 0.00 0.09 0.09 65 1013.9
20260507231559 64 110 1.0 3.0 0.00 0.09 0.09 66 1014.1
20260507231057 64 104 5.0 5.0 0.00 0.09 0.09 64 1014.0
20260507230553 65 94 2.0 4.0 0.00 0.09 0.09 64 1014.1
20260507230050 65 63 1.0 3.0 0.00 0.09 0.09 67 1014.0
20260507225544 67 157 1.0 2.0 0.00 0.09 0.09 64 1013.9
20260507225041 67 34 0.0 2.0 0.00 0.09 0.09 61 1014.0
20260507224537 67 76 2.0 4.0 0.00 0.09 0.09 60 1014.0
20260507224034 68 92 4.0 5.0 0.00 0.09 0.09 59 1014.2
20260507223530 66 37 2.0 3.0 0.00 0.09 0.09 65 1013.9
20260507223027 65 313 0.0 2.0 0.00 0.09 0.09 65 1014.1
20260507222524 67 67 3.0 4.0 0.00 0.09 0.09 59 1014.2
20260507222020 68 70 2.0 3.0 0.00 0.09 0.09 59 1014.1
20260507221517 66 89 2.0 3.0 0.00 0.09 0.09 58 1014.2
20260507221014 67 74 3.0 4.0 0.00 0.09 0.09 59 1014.3
20260507220511 67 89 3.0 6.0 0.00 0.09 0.09 59 1014.1
20260507220009 67 73 2.0 3.0 0.00 0.09 0.09 62 1013.9
20260507215504 65 5 0.0 2.0 0.00 0.09 0.09 66 1014.1
20260507215003 65 109 0.0 3.0 0.00 0.09 0.09 61 1014.1
20260507214459 64 62 1.0 2.0 0.00 0.09 0.09 62 1013.9
20260507213955 65 309 0.0 1.0 0.00 0.09 0.09 62 1013.8
20260507213452 66 296 0.0 2.0 0.00 0.09 0.09 61 1013.6
20260507212948 67 293 0.0 2.0 0.00 0.09 0.09 61 1013.9
20260507212444 68 269 1.0 2.0 0.00 0.09 0.09 55 1013.7
20260507211942 70 279 2.0 2.0 0.00 0.09 0.09 53 1013.7
20260507211438 70 60 3.0 4.0 0.00 0.09 0.09 48 1013.5
20260507210935 70 302 0.0 3.0 0.00 0.09 0.09 59 1013.6
20260507210432 71 77 1.0 4.0 0.00 0.09 0.09 49 1013.5
20260507205928 71 242 0.0 3.0 0.00 0.09 0.09 55 1013.4
20260507205426 70 78 2.0 3.0 0.00 0.09 0.09 49 1013.3
20260507204922 71 70 4.0 5.0 0.00 0.09 0.09 49 1013.6